• In Latvia
  • List of Countries
  • For 7 days
  • Water Temperature
  • Satellite Maps
  • Weather Map
  • Weather Widgets
  • user-avatar
    Login

    Hourly Weather Eisenstadt

    Today, 24 May, Wednesday

    Time Temperature Precipitation Wind Pressure Humidity
    00:00 +13°C° 0 mm 3 mps 723 mmHg 85%
    01:00 +13°C° 0 mm 3 mps 723 mmHg 84%
    02:00 +13°C° 0 mm 3 mps 723 mmHg 85%
    03:00 +13°C° 0 mm 3 mps 723 mmHg 86%
    04:00 +12°C° 0 mm 3 mps 723 mmHg 86%
    05:00 +13°C° 0.1 mm 3 mps 723 mmHg 86%
    06:00 +14°C° 0.1 mm 3 mps 723 mmHg 85%
    07:00 +15°C° 0.1 mm 4 mps 723 mmHg 84%
    08:00 +15°C° 0.3 mm 4 mps 723 mmHg 83%
    09:00 +15°C° 0.3 mm 4 mps 724 mmHg 82%
    10:00 +15°C° 0.3 mm 4 mps 724 mmHg 80%
    11:00 +16°C° 0.2 mm 5 mps 724 mmHg 73%
    12:00 +17°C° 0.2 mm 6 mps 724 mmHg 67%
    13:00 +18°C° 0.2 mm 7 mps 724 mmHg 60%
    14:00 +18°C° 0 mm 7 mps 724 mmHg 58%
    15:00 +18°C° 0 mm 7 mps 724 mmHg 57%
    16:00 +18°C° 0 mm 7 mps 723 mmHg 55%
    17:00 +16°C° 0.1 mm 6 mps 723 mmHg 62%
    18:00 +15°C° 0.1 mm 5 mps 723 mmHg 69%
    19:00 +13°C° 0.1 mm 3 mps 723 mmHg 75%
    20:00 +13°C° 0.2 mm 3 mps 724 mmHg 78%
    21:00 +12°C° 0.2 mm 3 mps 724 mmHg 81%
    22:00 +12°C° 0.2 mm 2 mps 724 mmHg 83%
    23:00 +12°C° 0.3 mm 2 mps 724 mmHg 85%

    Tomorrow, 25 May, Thursday

    Time Temperature Precipitation Wind Pressure Humidity
    00:00 +12°C° 0.3 mm 2 mps 724 mmHg 86%
    01:00 +12°C° 0.3 mm 2 mps 723 mmHg 87%
    02:00 +10°C° 0.4 mm 2 mps 723 mmHg 89%
    03:00 +10°C° 0.4 mm 2 mps 723 mmHg 91%
    04:00 +10°C° 0.4 mm 2 mps 722 mmHg 93%
    05:00 +10°C° 0.7 mm 2 mps 723 mmHg 91%
    06:00 +11°C° 0.7 mm 3 mps 723 mmHg 89%
    07:00 +11°C° 0.7 mm 4 mps 723 mmHg 87%
    08:00 +12°C° 0.2 mm 4 mps 723 mmHg 81%
    09:00 +14°C° 0.2 mm 5 mps 723 mmHg 75%
    10:00 +15°C° 0.2 mm 6 mps 724 mmHg 69%
    11:00 +16°C° 0.1 mm 6 mps 723 mmHg 64%
    12:00 +16°C° 0.1 mm 6 mps 723 mmHg 59%
    13:00 +17°C° 0.1 mm 6 mps 723 mmHg 54%
    14:00 +17°C° 0 mm 6 mps 723 mmHg 56%
    15:00 +17°C° 0 mm 6 mps 723 mmHg 57%
    16:00 +17°C° 0 mm 6 mps 723 mmHg 58%
    17:00 +16°C° 0 mm 5 mps 723 mmHg 64%
    18:00 +15°C° 0 mm 4 mps 723 mmHg 70%
    19:00 +14°C° 0 mm 3 mps 723 mmHg 77%
    20:00 +13°C° 0 mm 3 mps 723 mmHg 79%
    21:00 +12°C° 0 mm 3 mps 723 mmHg 80%
    22:00 +11°C° 0 mm 3 mps 723 mmHg 82%
    23:00 +11°C° 0 mm 3 mps 723 mmHg 84%

    Day after tomorrow, 26 May, Friday

    Time Temperature Precipitation Wind Pressure Humidity
    00:00 +10°C° 0 mm 3 mps 723 mmHg 86%
    01:00 +10°C° 0 mm 3 mps 723 mmHg 88%
    02:00 +10°C° 0 mm 3 mps 723 mmHg 88%
    03:00 +10°C° 0 mm 3 mps 723 mmHg 87%
    04:00 +11°C° 0 mm 3 mps 723 mmHg 87%
    05:00 +11°C° 0 mm 4 mps 723 mmHg 84%
    06:00 +12°C° 0 mm 5 mps 723 mmHg 81%
    07:00 +11°C° 0 mm 6 mps 723 mmHg 78%
    08:00 +13°C° 0.1 mm 6 mps 723 mmHg 72%
    09:00 +15°C° 0.1 mm 6 mps 723 mmHg 67%
    10:00 +16°C° 0.1 mm 6 mps 723 mmHg 61%
    11:00 +16°C° 0.1 mm 6 mps 723 mmHg 58%
    12:00 +17°C° 0.1 mm 6 mps 723 mmHg 56%
    13:00 +19°C° 0.1 mm 6 mps 723 mmHg 53%
    14:00 +19°C° 0 mm 6 mps 723 mmHg 54%
    15:00 +19°C° 0 mm 6 mps 723 mmHg 55%
    16:00 +19°C° 0 mm 6 mps 722 mmHg 56%
    17:00 +17°C° 0 mm 5 mps 723 mmHg 63%
    18:00 +15°C° 0 mm 4 mps 723 mmHg 71%
    19:00 +14°C° 0 mm 3 mps 723 mmHg 78%
    20:00 +13°C° 0.1 mm 3 mps 723 mmHg 81%
    21:00 +12°C° 0.1 mm 3 mps 723 mmHg 84%
    22:00 +11°C° 0.1 mm 3 mps 723 mmHg 87%
    23:00 +11°C° 0 mm 3 mps 723 mmHg 87%

    27 May, Saturday

    Time Temperature Precipitation Wind Pressure Humidity
    00:00 +10°C° 0 mm 3 mps 724 mmHg 88%
    01:00 +10°C° 0 mm 3 mps 724 mmHg 88%
    02:00 +10°C° 0 mm 3 mps 724 mmHg 88%
    03:00 +9°C° 0 mm 3 mps 724 mmHg 88%
    04:00 +9°C° 0 mm 3 mps 724 mmHg 89%
    05:00 +10°C° 0 mm 4 mps 724 mmHg 83%
    06:00 +12°C° 0 mm 4 mps 724 mmHg 78%
    07:00 +13°C° 0 mm 5 mps 725 mmHg 73%
    08:00 +14°C° 0 mm 5 mps 725 mmHg 67%
    09:00 +15°C° 0 mm 5 mps 725 mmHg 61%
    10:00 +17°C° 0 mm 5 mps 725 mmHg 56%
    11:00 +17°C° 0 mm 5 mps 725 mmHg 54%
    12:00 +19°C° 0 mm 5 mps 725 mmHg 52%
    13:00 +19°C° 0 mm 6 mps 725 mmHg 50%
    14:00 +19°C° 0 mm 5 mps 725 mmHg 51%
    15:00 +19°C° 0 mm 5 mps 725 mmHg 52%
    16:00 +19°C° 0 mm 5 mps 725 mmHg 54%
    17:00 +16°C° 0 mm 5 mps 725 mmHg 61%
    18:00 +15°C° 0 mm 4 mps 725 mmHg 68%
    19:00 +14°C° 0 mm 3 mps 725 mmHg 75%
    20:00 +12°C° 0 mm 3 mps 725 mmHg 78%
    21:00 +11°C° 0 mm 3 mps 726 mmHg 81%
    22:00 +10°C° 0 mm 2 mps 726 mmHg 84%
    23:00 +9°C° 0 mm 2 mps 726 mmHg 84%

    28 May, Sunday

    Time Temperature Precipitation Wind Pressure Humidity
    00:00 +9°C° 0 mm 2 mps 726 mmHg 84%
    01:00 +8°C° 0 mm 2 mps 726 mmHg 84%
    02:00 +8°C° 0 mm 2 mps 726 mmHg 86%
    03:00 +8°C° 0 mm 2 mps 726 mmHg 87%
    04:00 +8°C° 0 mm 1 mps 726 mmHg 88%
    05:00 +10°C° 0 mm 1 mps 727 mmHg 82%
    06:00 +13°C° 0 mm 1 mps 727 mmHg 75%
    07:00 +15°C° 0 mm 1 mps 727 mmHg 69%
    08:00 +16°C° 0 mm 2 mps 728 mmHg 64%
    09:00 +18°C° 0 mm 2 mps 728 mmHg 59%
    10:00 +19°C° 0 mm 2 mps 728 mmHg 55%
    11:00 +20°C° 0 mm 2 mps 728 mmHg 52%
    12:00 +21°C° 0 mm 3 mps 728 mmHg 50%
    13:00 +22°C° 0 mm 3 mps 728 mmHg 47%
    14:00 +22°C° 0 mm 3 mps 728 mmHg 48%
    15:00 +22°C° 0 mm 3 mps 727 mmHg 48%
    16:00 +22°C° 0 mm 3 mps 727 mmHg 49%
    17:00 +20°C° 0 mm 2 mps 727 mmHg 56%
    18:00 +18°C° 0 mm 2 mps 727 mmHg 63%
    19:00 +16°C° 0 mm 2 mps 727 mmHg 70%
    20:00 +15°C° 0 mm 2 mps 727 mmHg 73%
    21:00 +14°C° 0 mm 2 mps 727 mmHg 75%
    22:00 +12°C° 0 mm 2 mps 727 mmHg 78%
    23:00 +12°C° 0 mm 2 mps 727 mmHg 79%

    29 May, Monday

    Time Temperature Precipitation Wind Pressure Humidity
    00:00 +12°C° 0 mm 2 mps 727 mmHg 80%
    01:00 +10°C° 0 mm 2 mps 727 mmHg 81%
    02:00 +10°C° 0 mm 2 mps 727 mmHg 81%
    03:00 +9°C° 0 mm 2 mps 727 mmHg 82%
    04:00 +9°C° 0 mm 2 mps 727 mmHg 82%
    05:00 +12°C° 0 mm 2 mps 727 mmHg 76%
    06:00 +15°C° 0 mm 2 mps 727 mmHg 70%
    07:00 +17°C° 0 mm 2 mps 728 mmHg 65%
    08:00 +18°C° 0 mm 3 mps 728 mmHg 60%
    09:00 +20°C° 0 mm 3 mps 728 mmHg 55%
    10:00 +21°C° 0 mm 4 mps 728 mmHg 50%
    11:00 +22°C° 0 mm 4 mps 728 mmHg 49%
    12:00 +22°C° 0 mm 4 mps 727 mmHg 47%
    13:00 +23°C° 0 mm 4 mps 727 mmHg 46%
    14:00 +23°C° 0 mm 4 mps 727 mmHg 48%
    15:00 +23°C° 0 mm 4 mps 727 mmHg 50%
    16:00 +23°C° 0 mm 4 mps 726 mmHg 52%
    17:00 +21°C° 0 mm 4 mps 726 mmHg 59%
    18:00 +20°C° 0 mm 3 mps 726 mmHg 67%
    19:00 +18°C° 0 mm 3 mps 726 mmHg 75%
    20:00 +17°C° 0 mm 3 mps 726 mmHg 79%
    21:00 +16°C° 0 mm 3 mps 726 mmHg 82%
    22:00 +13°C° 0 mm 3 mps 726 mmHg 85%
    23:00 +13°C° 0 mm 3 mps 726 mmHg 86%
    Show more